Radiation Dose at Monitoring Post of Fukushima Daini Nuclear Power Station
Date,Time,MP-1(microSv/h),MP-2(microSv/h),MP-3(microSv/h),MP-4(microSv/h),MP-5(microSv/h),MP-6(microSv/h),MP-7(microSv/h),Wind Direction,Wind Velocity(m/s),Rain
2020/12/18,00:00,0.178,0.160,0.259,0.245,0.239,0.141,0.085,south-southwest,1.9,No
2020/12/18,00:10,0.178,0.159,0.259,0.245,0.238,0.142,0.086,south-southwest,1.3,No
2020/12/18,00:20,0.178,0.159,0.259,0.245,0.239,0.141,0.085,south-southwest,2.2,No
2020/12/18,00:30,0.178,0.160,0.260,0.245,0.240,0.142,0.086,southwest,2.6,No
2020/12/18,00:40,0.178,0.159,0.259,0.245,0.238,0.141,0.086,south-southwest,2.2,No
2020/12/18,00:50,0.178,0.160,0.259,0.246,0.240,0.141,0.085,south,3.1,No
2020/12/18,01:00,0.178,0.159,0.259,0.245,0.240,0.141,0.085,south,3.9,No
2020/12/18,01:10,0.177,0.159,0.259,0.245,0.240,0.142,0.086,south,3.1,No
2020/12/18,01:20,0.177,0.159,0.259,0.243,0.239,0.142,0.084,south-southwest,3.9,No
2020/12/18,01:30,0.179,0.159,0.258,0.245,0.240,0.141,0.085,southwest,2.8,No
2020/12/18,01:40,0.178,0.160,0.259,0.244,0.240,0.141,0.086,west-southwest,2.6,No
2020/12/18,01:50,0.178,0.159,0.259,0.245,0.239,0.141,0.084,west-northwest,2.1,No
2020/12/18,02:00,0.178,0.159,0.260,0.245,0.238,0.142,0.085,north-northwest,0.7,No
2020/12/18,02:10,0.178,0.159,0.258,0.246,0.239,0.142,0.085,-,CALM,No
2020/12/18,02:20,0.178,0.159,0.259,0.245,0.239,0.141,0.086,east-northeast,0.7,No
2020/12/18,02:30,0.178,0.159,0.259,0.245,0.239,0.141,0.086,south,0.6,No
2020/12/18,02:40,0.178,0.159,0.260,0.246,0.240,0.142,0.086,southwest,0.6,No
2020/12/18,02:50,0.178,0.159,0.259,0.246,0.240,0.140,0.086,south-southeast,1.1,No
2020/12/18,03:00,0.178,0.160,0.259,0.244,0.239,0.141,0.087,-,CALM,No
2020/12/18,03:10,0.178,0.159,0.259,0.245,0.240,0.141,0.085,-,CALM,No
2020/12/18,03:20,0.178,0.160,0.259,0.245,0.239,0.141,0.085,-,CALM,No
2020/12/18,03:30,0.178,0.159,0.259,0.245,0.240,0.141,0.085,northwest,0.8,No
2020/12/18,03:40,0.178,0.159,0.259,0.246,0.241,0.141,0.086,-,CALM,No
2020/12/18,03:50,0.179,0.159,0.260,0.245,0.240,0.141,0.086,south-southeast,1.1,No
2020/12/18,04:00,0.179,0.159,0.260,0.245,0.239,0.141,0.085,-,CALM,No
2020/12/18,04:10,0.178,0.159,0.260,0.246,0.240,0.141,0.085,south,1.4,No
2020/12/18,04:20,0.178,0.160,0.260,0.246,0.239,0.140,0.086,southwest,1.7,No
2020/12/18,04:30,0.178,0.159,0.258,0.246,0.239,0.141,0.086,southwest,1.0,No
2020/12/18,04:40,0.178,0.160,0.260,0.245,0.240,0.141,0.086,west-southwest,0.6,No
2020/12/18,04:50,0.178,0.160,0.259,0.244,0.241,0.141,0.086,-,CALM,No
2020/12/18,05:00,0.178,0.159,0.259,0.245,0.240,0.141,0.086,-,CALM,No
2020/12/18,05:10,0.178,0.159,0.259,0.245,0.240,0.141,0.086,south,1.5,No
2020/12/18,05:20,0.178,0.159,0.260,0.245,0.239,0.142,0.086,south-southeast,1.5,No
2020/12/18,05:30,0.178,0.160,0.259,0.246,0.240,0.141,0.086,south-southwest,2.5,No
2020/12/18,05:40,0.178,0.159,0.259,0.245,0.240,0.141,0.086,southwest,2.7,No
2020/12/18,05:50,0.178,0.159,0.258,0.245,0.239,0.141,0.085,south-southwest,3.6,No
2020/12/18,06:00,0.178,0.159,0.259,0.245,0.239,0.141,0.085,south,4.7,No
2020/12/18,06:10,0.178,0.160,0.259,0.245,0.239,0.140,0.086,south-southwest,3.4,No
2020/12/18,06:20,0.178,0.159,0.258,0.245,0.239,0.141,0.085,southwest,2.8,No
2020/12/18,06:30,0.179,0.160,0.258,0.245,0.239,0.141,0.085,southwest,2.5,No
2020/12/18,06:40,0.179,0.159,0.259,0.245,0.239,0.141,0.086,southwest,3.5,No
2020/12/18,06:50,0.178,0.159,0.258,0.244,0.240,0.142,0.085,southwest,3.3,No
2020/12/18,07:00,0.178,0.159,0.260,0.245,0.239,0.141,0.086,southwest,2.6,No
2020/12/18,07:10,0.178,0.159,0.259,0.244,0.239,0.141,0.086,southwest,2.9,No
2020/12/18,07:20,0.178,0.160,0.260,0.246,0.238,0.141,0.086,southwest,3.1,No
2020/12/18,07:30,0.179,0.160,0.259,0.244,0.239,0.141,0.086,south-southwest,3.0,No
2020/12/18,07:40,0.179,0.159,0.259,0.244,0.240,0.141,0.085,southwest,3.7,No
2020/12/18,07:50,0.178,0.159,0.259,0.244,0.239,0.141,0.085,southwest,3.9,No
2020/12/18,08:00,0.178,0.160,0.261,0.245,0.239,0.141,0.085,southwest,4.8,No
2020/12/18,08:10,0.178,0.159,0.259,0.243,0.239,0.141,0.086,west-southwest,4.3,No
2020/12/18,08:20,0.178,0.159,0.259,0.245,0.240,0.140,0.085,west-southwest,4.0,No
2020/12/18,08:30,0.178,0.159,0.259,0.245,0.240,0.141,0.086,southwest,4.1,No
2020/12/18,08:40,0.178,0.159,0.259,0.245,0.240,0.140,0.085,southwest,4.4,No
2020/12/18,08:50,0.177,0.159,0.258,0.244,0.239,0.141,0.086,southwest,2.6,No
2020/12/18,09:00,0.178,0.158,0.258,0.243,0.239,0.140,0.085,southwest,3.3,No
2020/12/18,09:10,0.177,0.158,0.258,0.243,0.241,0.141,0.085,south-southwest,3.4,No
2020/12/18,09:20,0.178,0.159,0.258,0.244,0.238,0.141,0.086,south-southwest,3.8,No
2020/12/18,09:30,0.178,0.159,0.259,0.245,0.240,0.141,0.085,south,3.6,No
2020/12/18,09:40,0.177,0.159,0.259,0.244,0.239,0.141,0.085,south,4.2,No
2020/12/18,09:50,0.178,0.159,0.258,0.244,0.239,0.141,0.086,south,5.0,No
2020/12/18,10:00,0.178,0.158,0.258,0.244,0.239,0.141,0.086,south,4.5,No
2020/12/18,10:10,0.178,0.158,0.258,0.246,0.240,0.141,0.085,south,4.6,No
2020/12/18,10:20,0.177,0.160,0.258,0.244,0.240,0.142,0.085,south-southeast,4.6,No
2020/12/18,10:30,0.177,0.159,0.257,0.244,0.239,0.142,0.085,south,4.4,No
2020/12/18,10:40,0.178,0.159,0.258,0.245,0.239,0.142,0.086,south-southeast,3.1,No
2020/12/18,10:50,0.177,0.159,0.257,0.244,0.240,0.141,0.085,west,3.4,No
2020/12/18,11:00,0.177,0.159,0.259,0.244,0.239,0.142,0.085,west,5.5,No
2020/12/18,11:10,0.177,0.159,0.258,0.246,0.240,0.141,0.085,west,5.3,No
2020/12/18,11:20,0.178,0.160,0.258,0.243,0.238,0.141,0.086,west-northwest,3.8,No
2020/12/18,11:30,0.177,0.159,0.258,0.244,0.238,0.141,0.085,west,4.7,No
2020/12/18,11:40,0.178,0.158,0.259,0.246,0.240,0.141,0.086,west-northwest,3.5,No
2020/12/18,11:50,0.178,0.159,0.258,0.244,0.238,0.142,0.085,west,3.0,No
2020/12/18,12:00,0.177,0.158,0.260,0.245,0.241,0.140,0.086,west,5.7,No
2020/12/18,12:10,0.178,0.158,0.259,0.245,0.240,0.141,0.085,west,2.8,No
2020/12/18,12:20,0.177,0.159,0.259,0.244,0.240,0.141,0.085,west-northwest,5.0,No
2020/12/18,12:30,0.177,0.159,0.257,0.244,0.238,0.141,0.085,west,2.3,No
2020/12/18,12:40,0.178,0.160,0.257,0.244,0.239,0.141,0.085,west-southwest,6.3,No
2020/12/18,12:50,0.177,0.159,0.258,0.244,0.240,0.140,0.085,west,8.1,No
2020/12/18,13:00,0.177,0.158,0.259,0.244,0.240,0.141,0.085,west,5.3,No
2020/12/18,13:10,0.176,0.160,0.258,0.245,0.241,0.140,0.086,west-southwest,3.9,No
2020/12/18,13:20,0.177,0.159,0.258,0.245,0.241,0.142,0.086,west,7.0,No
2020/12/18,13:30,0.177,0.159,0.259,0.244,0.239,0.141,0.085,west-southwest,5.3,No
2020/12/18,13:40,0.177,0.158,0.257,0.245,0.240,0.141,0.085,west,8.4,No
2020/12/18,13:50,0.178,0.158,0.258,0.244,0.239,0.140,0.086,west,7.9,No
2020/12/18,14:00,0.177,0.158,0.259,0.245,0.241,0.141,0.085,west-southwest,3.6,No
2020/12/18,14:10,0.177,0.159,0.259,0.244,0.237,0.141,0.086,west-southwest,4.7,No
2020/12/18,14:20,0.178,0.160,0.258,0.245,0.241,0.140,0.084,west-southwest,5.3,No
2020/12/18,14:30,0.177,0.159,0.260,0.245,0.237,0.141,0.085,west,6.7,No
2020/12/18,14:40,0.178,0.159,0.258,0.244,0.240,0.140,0.085,west,5.9,No
2020/12/18,14:50,0.177,0.159,0.259,0.242,0.241,0.141,0.085,west-southwest,3.3,No
2020/12/18,15:00,0.178,0.159,0.259,0.245,0.240,0.140,0.085,west,1.8,No
2020/12/18,15:10,0.178,0.160,0.260,0.245,0.241,0.141,0.086,west,2.1,No
2020/12/18,15:20,0.179,0.159,0.258,0.245,0.239,0.141,0.085,west-southwest,2.6,No
2020/12/18,15:30,0.178,0.159,0.260,0.245,0.238,0.142,0.085,west-southwest,3.4,No
2020/12/18,15:40,0.177,0.159,0.259,0.246,0.240,0.141,0.085,west-southwest,3.9,No
2020/12/18,15:50,0.178,0.160,0.259,0.245,0.240,0.141,0.085,west-southwest,4.1,No
2020/12/18,16:00,0.177,0.159,0.259,0.245,0.240,0.141,0.085,west,1.7,No
2020/12/18,16:10,0.177,0.160,0.259,0.245,0.240,0.141,0.086,west-northwest,1.0,No
2020/12/18,16:20,0.177,0.159,0.259,0.245,0.240,0.141,0.085,-,CALM,No
2020/12/18,16:30,0.178,0.159,0.258,0.246,0.238,0.142,0.085,-,CALM,No
2020/12/18,16:40,0.178,0.158,0.259,0.245,0.240,0.142,0.085,west,0.8,No
2020/12/18,16:50,0.178,0.160,0.260,0.245,0.239,0.140,0.085,west,1.1,No
2020/12/18,17:00,0.178,0.161,0.259,0.245,0.240,0.142,0.085,west-southwest,1.7,No
2020/12/18,17:10,0.177,0.160,0.259,0.246,0.240,0.142,0.086,west,2.1,No
2020/12/18,17:20,0.178,0.158,0.259,0.246,0.239,0.142,0.085,west,2.6,No
2020/12/18,17:30,0.178,0.159,0.259,0.245,0.239,0.142,0.086,west-southwest,2.5,No
2020/12/18,17:40,0.178,0.160,0.259,0.246,0.241,0.142,0.086,west-southwest,2.6,No
2020/12/18,17:50,0.178,0.159,0.258,0.245,0.240,0.141,0.085,west-southwest,2.1,No
2020/12/18,18:00,0.177,0.160,0.260,0.246,0.239,0.141,0.085,west-southwest,2.2,No
2020/12/18,18:10,0.177,0.161,0.259,0.246,0.240,0.142,0.086,west-southwest,2.3,No
2020/12/18,18:20,0.177,0.159,0.259,0.245,0.240,0.141,0.086,west-southwest,3.7,No
2020/12/18,18:30,0.177,0.159,0.258,0.245,0.240,0.142,0.086,southwest,3.7,No
2020/12/18,18:40,0.179,0.160,0.259,0.247,0.240,0.141,0.086,west-southwest,3.7,No
2020/12/18,18:50,0.179,0.160,0.260,0.246,0.239,0.142,0.086,west-southwest,3.3,No
2020/12/18,19:00,0.178,0.159,0.259,0.246,0.241,0.141,0.085,southwest,3.9,No
2020/12/18,19:10,0.179,0.160,0.258,0.245,0.240,0.141,0.087,southwest,2.7,No
2020/12/18,19:20,0.177,0.160,0.257,0.247,0.240,0.141,0.086,southwest,1.8,No
2020/12/18,19:30,0.178,0.160,0.260,0.246,0.241,0.142,0.086,southwest,2.3,No
2020/12/18,19:40,0.178,0.160,0.261,0.245,0.239,0.141,0.086,southwest,4.6,No
2020/12/18,19:50,0.178,0.160,0.260,0.248,0.240,0.141,0.086,southwest,3.1,No
2020/12/18,20:00,0.178,0.161,0.259,0.246,0.240,0.142,0.086,southwest,2.7,No
2020/12/18,20:10,0.178,0.160,0.259,0.246,0.241,0.141,0.087,west-southwest,3.7,No
2020/12/18,20:20,0.178,0.160,0.261,0.245,0.240,0.142,0.086,southwest,4.9,No
2020/12/18,20:30,0.178,0.161,0.260,0.246,0.240,0.142,0.087,west-southwest,5.3,No
2020/12/18,20:40,0.178,0.160,0.260,0.247,0.241,0.142,0.087,west-southwest,5.3,No
2020/12/18,20:50,0.178,0.160,0.259,0.247,0.241,0.141,0.087,west-southwest,6.3,No
2020/12/18,21:00,0.179,0.159,0.260,0.246,0.241,0.142,0.086,west-southwest,5.1,No
2020/12/18,21:10,0.178,0.159,0.260,0.246,0.239,0.142,0.087,west-southwest,5.1,No
2020/12/18,21:20,0.178,0.160,0.260,0.245,0.240,0.142,0.087,west-southwest,4.9,No
2020/12/18,21:30,0.178,0.161,0.260,0.247,0.240,0.142,0.086,southwest,4.4,No
2020/12/18,21:40,0.179,0.159,0.260,0.247,0.240,0.142,0.087,southwest,4.9,No
2020/12/18,21:50,0.178,0.160,0.260,0.247,0.240,0.142,0.087,southwest,4.8,No
2020/12/18,22:00,0.178,0.160,0.261,0.246,0.242,0.142,0.086,southwest,6.3,No
2020/12/18,22:10,0.179,0.160,0.259,0.246,0.241,0.141,0.087,southwest,5.7,No
2020/12/18,22:20,0.179,0.160,0.260,0.247,0.240,0.141,0.087,west-southwest,7.0,No
2020/12/18,22:30,0.179,0.159,0.259,0.245,0.240,0.142,0.087,west-southwest,7.1,No
2020/12/18,22:40,0.179,0.160,0.259,0.246,0.240,0.142,0.086,west-southwest,7.3,No
2020/12/18,22:50,0.178,0.160,0.260,0.244,0.241,0.142,0.086,west-southwest,6.8,No
2020/12/18,23:00,0.178,0.161,0.261,0.246,0.241,0.142,0.086,west-southwest,5.5,No
2020/12/18,23:10,0.179,0.160,0.259,0.247,0.241,0.142,0.087,west,6.6,No
2020/12/18,23:20,0.178,0.160,0.260,0.246,0.241,0.141,0.087,west,6.7,No
2020/12/18,23:30,0.177,0.161,0.259,0.246,0.241,0.142,0.086,west,7.6,No
2020/12/18,23:40,0.178,0.160,0.259,0.246,0.240,0.142,0.086,west,9.0,No
2020/12/18,23:50,0.178,0.160,0.260,0.247,0.240,0.141,0.086,west,8.1,No
